Погода в Воскресенском

Россия / Липецкая область     53°11′57″N   38°43′23″E
темп.,
°C
ветер,
м/с
пор.,
м/с
влажн.,
%
обл.,
%
осадки,
мм/ч
давл.,
гПа
погр.,
м
18 января, пн
пн1800:00−23св129879 0.0 101820
03:00−22св229689 0.0 101927
06:00−21ссв3497100 0.0 1019111
09:00−21св2297100 0.1 1020105
12:00−19св2293100 0.1 1019231
15:00−18ссв2295100 0.2 1019227
18:00−19св1298100 0.5 101962
21:00−18ссв1298100 0.9 1019112
19 января, вт
вт1900:00−19ссв0198100 0.3 101920
03:00−21ссз1298100 0.3 101920
06:00−23ссз1110059 0.0 101920
09:00−22зсз129877 0.1 101920
12:00−19зсз129550 0.0 101994
15:00−19зсз229659 0.0 101834
18:00−22зсз2398100 0.0 101920
21:00−20зсз2398100 0.0 101955
20 января, ср
ср2000:00−19з3398100 0.1 101974
03:00−18зсз3497100 0.2 102093
06:00−17з3597100 0.2 1020132
09:00−18зсз359790 0.3 102197
12:00−17зсз349548 0.0 1022166
15:00−17з349532 0.0 1023130
18:00−20з33975 0.0 102429
21:00−20з33973 0.0 102530
21 января, чт
чт2100:00−21зюз34920 0.0 102634
03:00−20юз34950 0.0 102651
06:00−20ююз46950 0.0 102587
09:00−20ююз49948 0.0 1025171
12:00−15ююз6128786 0.0 1022302
15:00−11ююз8169293 0.0 1020449
18:00−9юз81593100 0.4 1018534
21:00−6юз81693100 0.8 1016608
22 января, пт
пт2200:00−1зюз91792100 0.4 1015606
03:000зюз81590100 0.4 1014748
06:000зюз81491100 0.0 1014717
09:00+1зюз71392100 0.0 1014592
12:00+1юз61296100 0.0 1015476
15:00+1юз6129696 0.0 1014470
18:00+1юз61194100 0.0 1014424
21:000юз7119799 0.0 1014441